カタログに戻る

THORAD DELTA 1 DEB

運用中LEO
NORAD 8594·DEBRIS·🇺🇸 United States

打ち上げ Nov 15, 1974 から Vandenberg Space Force Base

Loading…

次のパス (今後24時間)

TLE

最新Source: Space-Track

元期: Sep 14, 2026, 21:23 UTC

1 08594U 74089DH  26257.89117407  .00000027  00000-0  35132-3 0  9999
2 08594 101.7730 232.0889 0128355 250.2113 136.2416 12.73209675404965

AllMySatでTHORAD DELTA 1 DEBをリアルタイム追跡

Download on the App Store